Regional Weather Roundup
Issued by NWS State College, PA

Home | Current Version | Previous Version | Graphics & Text | Print | Product List | Glossary On
Versions: 1 2 3 4 5 6 7 8 9 10 11 12 13 14 15 16 17 18 19 20 21 22 23 24 25 26 27 28 29 30 31 32 33 34 35 36 37 38 39 40 41 42 43 44 45 46 47 48 49 50
000
ASUS41 KCTP 231610
RWRCTP

REGIONAL WEATHER ROUNDUP
NATIONAL WEATHER SERVICE STATE COLLEGE PA
1200 PM EDT SAT MAY 23 2015

Note: "fair" indicates few or no clouds below 12,000 feet with no
significant weather and/or obstructions to visibility.

* = STATION THAT DOES NOT REPORT PRECIPITATION /E.G. RAIN...SNOW...ETC/
    THUNDER OR FOG.

PAZ002>004-007>009-013>016-020>023-029>032-231700-
WESTERN PENNSYLVANIA

CITY           SKY/WX    TMP DP  RH WIND       PRES   REMARKS
ERIE           SUNNY     61  29  29 NW8       30.43F
MEADVILLE      SUNNY     60  30  32 W8        30.43F
FRANKLIN*      SUNNY     59  30  33 SW7       30.45S
NEW CASTLE     FAIR      64  32  30 S6        30.45S
BEAVER COUNTY  SUNNY     63  34  34 SW3       30.44S
BUTLER*        SUNNY     61  30  31 W7        30.46F
PITTSBURGH INT MOSUNNY   63  31  30 SE7       30.43F
PITTSBURGH     SUNNY     63  28  26 VRB3      30.43F
INDIANA*       SUNNY     57  30  35 VRB3      30.48F
LATROBE        SUNNY     59  28  31 CALM      30.47S
WASHINGTON CO* SUNNY     64  36  34 CALM      30.45F
$$

PAZ004>006-010>012-017>019-024>028-033>037-041-042-045-046-049>053-231700-
CENTRAL PENNSYLVANIA

CITY           SKY/WX    TMP DP  RH WIND       PRES   REMARKS
BRADFORD       SUNNY     57  21  24 NW10      30.42S
DUBOIS         SUNNY     59  27  29 NW5       30.42F
CLEARFIELD     SUNNY     59  27  29 VRB3      30.43F
JOHNSTOWN      SUNNY     57  27  31 VRB7      30.44S
ALTOONA        SUNNY     59  27  29 CALM      30.44F
STATE COLLEGE  SUNNY     59  28  31 W5        30.44F
WILLIAMSPORT   SUNNY     57  26  30 SW9       30.44F
SELINSGROVE    SUNNY     57  28  33 MISG      30.46F
FT INDIANTOWN  SUNNY     59  26  27 VRB6      30.44F
CAPITAL CITY   SUNNY     59  25  27 N8        30.46F
HARRISBURG     MOSUNNY   60  30  32 W10       30.45F
YORK           SUNNY     61  27  27 NW8       30.46S
$$

PAZ038>040-043-044-047-048-054-055-060>062-067>071-231700-
EASTERN PENNSYLVANIA

CITY           SKY/WX    TMP DP  RH WIND       PRES   REMARKS
SCRANTON       SUNNY     57  23  26 W9        30.43F
MOUNT POCONO   SUNNY     52  20  28 W8G17     30.41S
ALLENTOWN      SUNNY     59  24  26 N5        30.44F
QUAKERTOWN*    SUNNY     57  27  30 W5        30.45S
READING        SUNNY     59  26  28 VRB3      30.44S
LANCASTER      SUNNY     58  30  34 VRB3      30.45F
COATESVILLE    SUNNY     57  28  33 NW8       30.46S
POTTSTOWN      SUNNY     59  28  30 VRB7      30.46S
BLUE BELL      SUNNY     61  27  27 W5        30.45S
DOYLESTOWN     SUNNY     58  23  26 VRB7      30.43F
WILLOW GROVE   NOT AVBL
NORTH PHILA    SUNNY     62  22  21 N8        30.46S
PHILADELPHIA   MOSUNNY   61  25  25 VRB7      30.46S
$$



USA.gov is the U.S. government's official web portal to all federal, state and local government web resources and services.